TimeCST,TemperatureF,Dew PointF,Humidity,Sea Level PressureIn,VisibilityMPH,Wind Direction,Wind SpeedMPH,Gust SpeedMPH,PrecipitationIn,Events,Conditions,WindDirDegrees,DateUTC
12:15 AM,44.6,44.6,100,30.00,10.0,Calm,Calm,-,N/A,,Overcast,0,2013-02-23 06:15:00
12:35 AM,44.6,44.6,100,29.99,10.0,Calm,Calm,-,N/A,,Overcast,0,2013-02-23 06:35:00
12:55 AM,44.6,44.6,100,30.01,10.0,WNW,3.5,-,N/A,,Overcast,290,2013-02-23 06:55:00
1:15 AM,44.6,44.6,100,30.01,10.0,Calm,Calm,-,N/A,,Overcast,0,2013-02-23 07:15:00
1:35 AM,44.6,44.6,100,29.99,10.0,Calm,Calm,-,N/A,,Overcast,0,2013-02-23 07:35:00
1:55 AM,44.6,44.6,100,29.99,10.0,SSW,3.5,-,N/A,,Overcast,210,2013-02-23 07:55:00
2:15 AM,44.6,44.6,100,29.98,10.0,Calm,Calm,-,N/A,,Overcast,0,2013-02-23 08:15:00
2:35 AM,44.6,44.6,100,29.97,9.0,Calm,Calm,-,N/A,,Overcast,0,2013-02-23 08:35:00
2:55 AM,44.6,44.6,100,29.97,9.0,Calm,Calm,-,N/A,,Overcast,0,2013-02-23 08:55:00
3:15 AM,44.6,44.6,100,29.96,8.0,Calm,Calm,-,N/A,,Overcast,0,2013-02-23 09:15:00
3:35 AM,44.6,44.6,100,29.96,7.0,WNW,4.6,-,N/A,,Overcast,300,2013-02-23 09:35:00
3:55 AM,44.6,44.6,100,29.96,6.0,NNW,3.5,-,N/A,,Overcast,340,2013-02-23 09:55:00
4:15 AM,42.8,42.8,100,29.96,5.0,NW,4.6,-,N/A,,Overcast,320,2013-02-23 10:15:00
4:35 AM,42.8,42.8,100,29.96,10.0,NNW,5.8,-,N/A,,Overcast,330,2013-02-23 10:35:00
4:55 AM,42.8,42.8,100,29.97,10.0,NW,5.8,-,N/A,,Overcast,310,2013-02-23 10:55:00
5:15 AM,41.0,41.0,100,29.97,10.0,North,5.8,-,N/A,,Overcast,350,2013-02-23 11:15:00
5:35 AM,41.0,39.2,93,29.96,10.0,NNW,5.8,-,N/A,,Overcast,340,2013-02-23 11:35:00
5:55 AM,41.0,39.2,93,29.97,10.0,NNW,5.8,-,N/A,,Overcast,330,2013-02-23 11:55:00
6:15 AM,41.0,39.2,93,29.96,10.0,NNW,3.5,-,N/A,,Overcast,340,2013-02-23 12:15:00
6:35 AM,41.0,39.2,93,29.97,10.0,NNW,4.6,-,N/A,,Overcast,330,2013-02-23 12:35:00
6:55 AM,41.0,39.2,93,29.98,10.0,NNW,4.6,-,N/A,,Overcast,330,2013-02-23 12:55:00
7:15 AM,41.0,39.2,93,29.97,10.0,NW,4.6,-,N/A,,Overcast,320,2013-02-23 13:15:00
7:35 AM,41.0,39.2,93,29.97,10.0,NNW,3.5,-,N/A,,Overcast,330,2013-02-23 13:35:00
7:55 AM,41.0,39.2,93,29.97,10.0,NNW,3.5,-,N/A,,Overcast,340,2013-02-23 13:55:00
8:15 AM,42.8,39.2,87,29.97,10.0,Calm,Calm,-,N/A,,Overcast,0,2013-02-23 14:15:00
8:35 AM,42.8,39.2,87,29.97,10.0,Calm,Calm,-,N/A,,Overcast,0,2013-02-23 14:35:00
8:55 AM,42.8,39.2,87,29.96,10.0,NW,5.8,-,N/A,,Overcast,310,2013-02-23 14:55:00
9:15 AM,42.8,39.2,87,29.96,10.0,North,5.8,-,N/A,,Overcast,350,2013-02-23 15:15:00
9:35 AM,42.8,39.2,87,29.96,10.0,North,4.6,-,N/A,,Overcast,10,2013-02-23 15:35:00
9:55 AM,42.8,39.2,87,29.96,10.0,NNE,3.5,-,N/A,,Overcast,20,2013-02-23 15:55:00
10:15 AM,44.6,39.2,81,29.95,10.0,NNE,4.6,-,N/A,,Overcast,20,2013-02-23 16:15:00
10:35 AM,44.6,39.2,81,29.95,10.0,West,3.5,-,N/A,,Overcast,280,2013-02-23 16:35:00
10:55 AM,46.4,39.2,76,29.95,10.0,Calm,Calm,-,N/A,,Mostly Cloudy,0,2013-02-23 16:55:00
11:15 AM,46.4,39.2,76,29.94,10.0,Calm,Calm,-,N/A,,Mostly Cloudy,0,2013-02-23 17:15:00
11:35 AM,50.0,42.8,76,29.94,10.0,Calm,Calm,-,N/A,,Mostly Cloudy,0,2013-02-23 17:35:00
12:15 PM,50.0,41.0,71,29.94,10.0,NW,5.8,-,N/A,,Partly Cloudy,310,2013-02-23 18:15:00
12:35 PM,51.8,41.0,67,29.93,10.0,WSW,5.8,-,N/A,,Partly Cloudy,240,2013-02-23 18:35:00
12:55 PM,51.8,41.0,67,29.92,10.0,WNW,6.9,-,N/A,,Partly Cloudy,300,2013-02-23 18:55:00
1:15 PM,53.6,41.0,62,29.91,10.0,Calm,Calm,-,N/A,,Clear,0,2013-02-23 19:15:00
1:35 PM,53.6,41.0,62,29.90,10.0,Calm,Calm,-,N/A,,Clear,0,2013-02-23 19:35:00
1:55 PM,53.6,39.2,58,29.90,10.0,Variable,3.5,-,N/A,,Clear,0,2013-02-23 19:55:00
2:15 PM,53.6,37.4,54,29.91,10.0,NW,5.8,-,N/A,,Clear,310,2013-02-23 20:15:00
2:35 PM,53.6,37.4,54,29.90,10.0,West,5.8,-,N/A,,Clear,280,2013-02-23 20:35:00
2:55 PM,53.6,39.2,58,29.90,10.0,West,4.6,-,N/A,,Clear,260,2013-02-23 20:55:00
3:15 PM,53.6,39.2,58,29.90,10.0,NW,3.5,-,N/A,,Clear,320,2013-02-23 21:15:00
3:35 PM,53.6,37.4,54,29.90,10.0,West,5.8,-,N/A,,Clear,280,2013-02-23 21:35:00
3:55 PM,51.8,37.4,58,29.89,10.0,NW,4.6,-,N/A,,Clear,310,2013-02-23 21:55:00
4:15 PM,51.8,37.4,58,29.89,10.0,NW,5.8,-,N/A,,Clear,310,2013-02-23 22:15:00
4:35 PM,51.8,37.4,58,29.88,10.0,NW,3.5,-,N/A,,Clear,310,2013-02-23 22:35:00
4:55 PM,50.0,37.4,62,29.87,10.0,NNW,4.6,-,N/A,,Clear,340,2013-02-23 22:55:00
5:15 PM,48.2,37.4,66,29.87,10.0,NNW,5.8,-,N/A,,Clear,340,2013-02-23 23:15:00
5:35 PM,48.2,37.4,66,29.87,10.0,NW,5.8,-,N/A,,Clear,310,2013-02-23 23:35:00
5:55 PM,46.4,35.6,66,29.89,10.0,Calm,Calm,-,N/A,,Clear,0,2013-02-23 23:55:00
6:15 PM,44.6,35.6,71,29.90,10.0,NW,3.5,-,N/A,,Clear,310,2013-02-24 00:15:00
6:55 PM,39.2,35.6,87,29.92,10.0,Calm,Calm,-,N/A,,Clear,0,2013-02-24 00:55:00
7:15 PM,39.2,35.6,87,29.93,10.0,NW,4.6,-,N/A,,Clear,320,2013-02-24 01:15:00
7:35 PM,39.2,33.8,81,29.93,10.0,NW,3.5,-,N/A,,Clear,320,2013-02-24 01:35:00
7:55 PM,41.0,33.8,76,29.93,10.0,NNW,4.6,-,N/A,,Clear,330,2013-02-24 01:55:00
8:15 PM,41.0,33.8,76,29.94,10.0,NNW,5.8,-,N/A,,Clear,340,2013-02-24 02:15:00
8:35 PM,39.2,30.2,70,29.95,10.0,North,4.6,-,N/A,,Clear,360,2013-02-24 02:35:00
8:55 PM,39.2,28.4,65,29.95,10.0,Calm,Calm,-,N/A,,Clear,0,2013-02-24 02:55:00
9:15 PM,37.4,30.2,75,29.95,10.0,Calm,Calm,-,N/A,,Clear,0,2013-02-24 03:15:00
9:35 PM,33.8,30.2,87,29.96,10.0,Calm,Calm,-,N/A,,Clear,0,2013-02-24 03:35:00
9:55 PM,32.0,30.2,93,29.96,10.0,Calm,Calm,-,N/A,,Clear,0,2013-02-24 03:55:00
10:15 PM,32.0,30.2,93,29.96,10.0,Calm,Calm,-,N/A,,Clear,0,2013-02-24 04:15:00
10:35 PM,30.2,30.2,100,29.95,10.0,Calm,Calm,-,N/A,,Clear,0,2013-02-24 04:35:00
10:55 PM,30.2,30.2,100,29.96,10.0,Calm,Calm,-,N/A,,Clear,0,2013-02-24 04:55:00
11:15 PM,30.2,28.4,93,29.96,10.0,Calm,Calm,-,N/A,,Clear,0,2013-02-24 05:15:00
11:35 PM,30.2,28.4,93,29.96,10.0,Calm,Calm,-,N/A,,Clear,0,2013-02-24 05:35:00
11:55 PM,30.2,30.2,100,29.97,10.0,Calm,Calm,-,N/A,,Clear,0,2013-02-24 05:55:00